Regional Weather Roundup
Issued by NWS

Home | Current Version | Previous Version | Text Only | Print | Product List | Glossary On
Versions: 1 2 3 4 5 6 7 8 9 10 11 12 13 14 15 16 17 18 19 20 21 22 23 24 25 26 27 28 29 30 31 32 33 34 35 36 37 38 39 40 41 42 43 44 45 46 47 48 49 50
000
ASUS44 KJAN 211510
RWRMS

MISSISSIPPI HOURLY WEATHER ROUNDUP
NATIONAL WEATHER SERVICE JACKSON MS
1000 AM CDT FRI JUL 21 2017

NOTE: "FAIR: INDICATES FEW OR NO CLOUDS BELOW 12,000 FEET WITH NO
SIGNIFICANT WEATHER AND/OR OBSTRUCTIONS TO VISIBILITY.

MSZ001>002-007>008-010>013-018>021-025>028-034>036-211600-
NORTHWEST MISSISSIPPI

CITY           SKY/WX    TMP DP  RH WIND       PRES   REMARKS
BATESVILLE     FAIR      89  75  63 CALM      30.06F HX  98
CLARKSDALE       N/A     91  81  70 W3        30.05F HX 110
CLEVELAND      FAIR      89  80  75 CALM      30.05S HX 106
GREENWOOD      SUNNY     89  76  65 CALM      30.05F HX 100
GREENVILLE     SUNNY     89  76  65 S5        30.04F HX 100
OLIVE BRANCH   MOSUNNY  N/A N/A N/A CALM      30.06S
OXFORD         FAIR      88  73  62 NW3       30.08F HX  96
TUNICA           N/A     90  77  66 W5        30.06S HX 102
WINONA         FAIR      88  78  74 MISG      30.06F HX 101
$$

MSZ003>006-009-014>017-022>024-029>033-037>039-211600-
NORTHEAST MISSISSIPPI

CITY           SKY/WX    TMP DP  RH WIND       PRES   REMARKS
COLUMBUS AFB   SUNNY     89  81  77 CALM      30.05F HX 108
CORINTH        FAIR      88  75  66 CALM      30.06F HX  97
GOLDN TRIANGLE SUNNY     90  73  58 NW5       30.02F HX  98
STARKVILLE     FAIR      88  75  66 NW3       30.08S HX  97
TUPELO         SUNNY     90  71  53 N3        30.06F HX  96
$$

MSZ040-058-211600-
CENTRAL MISSISSIPPI

CITY           SKY/WX    TMP DP  RH WIND       PRES   REMARKS
JACKSON INTL   PTSUNNY   87  74  64 NE5       30.07F HX  95
JACKSON HAWKNS PTSUNNY   88  76  67 VRB3      30.07F HX  99
MADISON        FAIR      82  73  74 CALM      30.06F
MERIDIAN KEY   SUNNY     92  77  61 N5        30.06F HX 105
MERIDIAN NAS   MOSUNNY   91  74  57 NW8       30.06F HX 100
RAYMOND        FAIR      90  77  66 MISG      30.06S HX 102
VICKSBURG VKS  SUNNY     84  77  79 CALM      30.03S HX  94
$$

MSZ059>079-211600-
SOUTH MISSISSIPPI

CITY           SKY/WX    TMP DP  RH WIND       PRES   REMARKS
COLUMBIA       FAIR      88  77  70 NW3       30.08F HX 100
HATTIESBURG    MOSUNNY   89  75  63 VRB3      30.06F HX  99
LAUREL         CLOUDY    84  79  86 CALM      30.06S HX  95
MCCOMB         MOSUNNY   87  74  64 N5        30.06F HX  95
NATCHEZ        NOT AVBL
PINE BELT      SUNNY     89  76  65 NW6       30.07S HX 100
$$

MSZ080>082-211600-
COASTAL MISSISSIPPI

CITY           SKY/WX    TMP DP  RH WIND       PRES   REMARKS
BAY ST LOUIS   SUNNY     88  79  74 NE6       30.06R HX 102
BILOXI         CLOUDY    87  77  73 NE6       30.05S HX  98
PASCAGOULA     CLOUDY    87  77  72 E10       30.07R HX  99
GULFPORT       MOSUNNY   87  76  69 NE6       30.05R HX  97
$$

LAZ007>009-015>016-023>026-211600-
NORTHEAST LOUISIANA

CITY           SKY/WX    TMP DP  RH WIND       PRES   REMARKS
BASTROP        FAIR      89  78  69 S3        30.05F HX 103
TALLULAH/VBURG CLOUDY    86  76  71 CALM      30.05F HX  96
VIDALIA        FAIR      87  78  74 CALM      30.04F HX  98
$$



USA.gov is the U.S. government's official web portal to all federal, state and local government web resources and services.